Time,TemperatureF,DewpointF,PressureIn,WindDirection,WindDirectionDegrees,WindSpeedMPH,WindSpeedGustMPH,Humidity,HourlyPrecipIn,Conditions,Clouds,dailyrainin,SoftwareType,DateUTC
2013-02-19 12:30:00,34.1,31.2,29.65,NW,315,0.0,0.0,89,0.04,,,0.08,VWS V14.01,2013-02-19 20:30:00,
2013-02-19 12:35:00,34.6,32.0,29.65,NW,318,0.0,0.0,90,0.04,,,0.09,VWS V14.01,2013-02-19 20:35:00,
2013-02-19 12:40:00,34.6,31.7,29.65,NW,318,0.0,0.0,89,0.04,,,0.09,VWS V14.01,2013-02-19 20:40:00,
2013-02-19 12:45:00,34.7,31.8,29.65,NW,318,0.0,0.0,89,0.02,,,0.09,VWS V14.01,2013-02-19 20:45:00,
2013-02-19 12:51:00,34.7,31.8,29.65,NW,318,0.0,0.0,89,0.03,,,0.10,VWS V14.01,2013-02-19 20:51:00,
2013-02-19 12:56:00,34.7,31.8,29.65,NW,318,0.0,0.0,89,0.03,,,0.10,VWS V14.01,2013-02-19 20:56:00,
2013-02-19 13:01:00,34.4,31.8,29.65,NW,318,0.0,0.0,90,0.03,,,0.10,VWS V14.01,2013-02-19 21:01:00,
2013-02-19 13:06:00,34.3,31.7,29.65,NW,318,0.0,0.0,90,0.04,,,0.11,VWS V14.01,2013-02-19 21:06:00,
2013-02-19 13:11:00,34.1,31.5,29.65,NW,318,0.0,0.0,90,0.04,,,0.11,VWS V14.01,2013-02-19 21:11:00,
2013-02-19 13:16:00,34.1,31.5,29.66,NW,318,0.0,0.0,90,0.03,,,0.11,VWS V14.01,2013-02-19 21:16:00,
2013-02-19 13:21:00,34.1,31.5,29.66,NW,318,0.0,1.0,90,0.03,,,0.11,VWS V14.01,2013-02-19 21:21:00,
2013-02-19 13:26:00,34.1,31.8,29.66,NW,318,0.0,1.0,91,0.03,,,0.11,VWS V14.01,2013-02-19 21:26:00,
2013-02-19 13:31:00,34.0,31.6,29.67,NW,318,0.0,0.0,91,0.02,,,0.11,VWS V14.01,2013-02-19 21:31:00,
2013-02-19 13:36:00,34.0,31.6,29.67,NW,318,0.0,0.0,91,0.03,,,0.12,VWS V14.01,2013-02-19 21:36:00,
2013-02-19 13:41:00,34.0,31.6,29.67,NW,318,0.0,0.0,91,0.03,,,0.12,VWS V14.01,2013-02-19 21:41:00,
2013-02-19 13:46:00,33.8,31.5,29.67,NW,318,0.0,1.0,91,0.03,,,0.12,VWS V14.01,2013-02-19 21:46:00,
2013-02-19 13:51:00,33.7,31.4,29.67,NW,318,0.0,1.0,91,0.03,,,0.12,VWS V14.01,2013-02-19 21:51:00,
2013-02-19 13:57:00,33.7,31.4,29.67,NW,318,0.0,1.0,91,0.03,,,0.12,VWS V14.01,2013-02-19 21:57:00,
2013-02-19 14:02:00,33.8,31.5,29.67,NW,318,0.0,0.0,91,0.03,,,0.13,VWS V14.01,2013-02-19 22:02:00,
2013-02-19 14:07:00,34.1,32.0,29.67,NW,318,0.0,0.0,92,0.03,,,0.13,VWS V14.01,2013-02-19 22:07:00,
2013-02-19 14:12:00,34.3,32.2,29.67,NW,318,0.0,0.0,92,0.03,,,0.13,VWS V14.01,2013-02-19 22:12:00,
2013-02-19 14:17:00,34.1,31.8,29.67,WSW,246,0.0,2.0,91,0.02,,,0.13,VWS V14.01,2013-02-19 22:17:00,
2013-02-19 14:22:00,34.1,31.8,29.67,West,267,0.0,2.0,91,0.02,,,0.13,VWS V14.01,2013-02-19 22:22:00,
2013-02-19 14:27:00,34.0,31.6,29.67,West,265,0.0,2.0,91,0.02,,,0.13,VWS V14.01,2013-02-19 22:27:00,
2013-02-19 14:32:00,34.0,31.6,29.68,West,265,0.0,0.0,91,0.02,,,0.13,VWS V14.01,2013-02-19 22:32:00,
2013-02-19 14:37:00,34.1,32.0,29.68,West,265,0.0,0.0,92,0.02,,,0.13,VWS V14.01,2013-02-19 22:37:00,
2013-02-19 14:42:00,34.3,32.2,29.68,West,267,0.0,0.0,92,0.02,,,0.13,VWS V14.01,2013-02-19 22:42:00,
2013-02-19 14:47:00,34.3,32.2,29.68,West,265,0.0,0.0,92,0.02,,,0.14,VWS V14.01,2013-02-19 22:47:00,
2013-02-19 14:53:00,34.4,32.3,29.68,West,267,0.0,0.0,92,0.02,,,0.14,VWS V14.01,2013-02-19 22:53:00,
2013-02-19 14:58:00,34.6,32.5,29.68,West,265,0.0,0.0,92,0.02,,,0.14,VWS V14.01,2013-02-19 22:58:00,
2013-02-19 15:03:00,34.6,32.5,29.68,West,265,0.0,0.0,92,0.01,,,0.14,VWS V14.01,2013-02-19 23:03:00,
2013-02-19 15:08:00,34.4,32.0,29.68,West,265,0.0,2.0,91,0.01,,,0.14,VWS V14.01,2013-02-19 23:08:00,
2013-02-19 15:13:00,34.6,32.5,29.69,West,265,0.0,2.0,92,0.01,,,0.14,VWS V14.01,2013-02-19 23:13:00,
2013-02-19 15:18:00,34.6,32.5,29.69,WNW,294,0.0,1.0,92,0.01,,,0.14,VWS V14.01,2013-02-19 23:18:00,
2013-02-19 15:23:00,34.4,32.0,29.69,WNW,294,0.0,1.0,91,0.01,,,0.14,VWS V14.01,2013-02-19 23:23:00,
2013-02-19 15:28:00,34.1,31.8,29.69,WNW,294,0.0,1.0,91,0.01,,,0.14,VWS V14.01,2013-02-19 23:28:00,
2013-02-19 15:33:00,34.3,32.0,29.69,WNW,294,0.0,0.0,91,0.01,,,0.14,VWS V14.01,2013-02-19 23:33:00,
2013-02-19 15:38:00,34.3,32.0,29.69,WNW,294,0.0,0.0,91,0.01,,,0.14,VWS V14.01,2013-02-19 23:38:00,
2013-02-19 15:43:00,34.3,32.2,29.69,WNW,294,0.0,0.0,92,0.01,,,0.14,VWS V14.01,2013-02-19 23:43:00,
2013-02-19 15:48:00,34.3,32.2,29.69,WNW,294,0.0,0.0,92,0.01,,,0.14,VWS V14.01,2013-02-19 23:48:00,
2013-02-19 15:53:00,34.3,32.2,29.69,WNW,295,0.0,3.0,92,0.01,,OVC060,0.14,VWS V14.01,2013-02-19 23:53:00,
2013-02-19 15:58:00,34.4,32.3,29.70,WNW,295,0.0,3.0,92,0.01,,OVC060,0.14,VWS V14.01,2013-02-19 23:58:00,
2013-02-19 16:04:00,34.4,32.3,29.70,WNW,295,0.0,1.0,92,0.00,,OVC060,0.14,VWS V14.01,2013-02-20 00:04:00,
2013-02-19 16:09:00,34.4,32.3,29.70,WNW,295,0.0,1.0,92,0.00,,OVC060,0.14,VWS V14.01,2013-02-20 00:09:00,
2013-02-19 16:14:00,34.3,32.2,29.70,WNW,295,0.0,0.0,92,0.00,,OVC060,0.14,VWS V14.01,2013-02-20 00:14:00,
2013-02-19 16:19:00,34.1,32.0,29.70,WNW,295,0.0,2.0,92,0.00,,OVC060,0.14,VWS V14.01,2013-02-20 00:19:00,
2013-02-19 16:24:00,33.8,31.7,29.70,WNW,295,0.0,2.0,92,0.00,,OVC060,0.14,VWS V14.01,2013-02-20 00:24:00,
2013-02-19 16:29:00,33.8,31.7,29.70,WNW,295,0.0,0.0,92,0.00,,OVC060,0.14,VWS V14.01,2013-02-20 00:29:00,
2013-02-19 16:34:00,33.8,31.7,29.70,WNW,295,0.0,0.0,92,0.00,,OVC060,0.14,VWS V14.01,2013-02-20 00:34:00,
2013-02-19 16:39:00,33.8,31.7,29.70,WNW,295,0.0,2.0,92,0.01,,OVC060,0.15,VWS V14.01,2013-02-20 00:39:00,
2013-02-19 16:44:00,33.7,31.6,29.70,WNW,295,0.0,2.0,92,0.01,,OVC060,0.15,VWS V14.01,2013-02-20 00:44:00,
2013-02-19 16:49:00,33.7,31.6,29.70,WNW,295,0.0,2.0,92,0.01,,OVC060,0.15,VWS V14.01,2013-02-20 00:49:00,